User: anonymous   Login
Location: Banksville Park
(38.5557°N, 75.1182°W)
Time: 01:46:27
(UTC+00:00)
Language:

CZ-2C R/B - Orbit

View from above orbital plane
View from above orbital plane
View from above satellite
View from above satellite

Ground track
Ground track

The orbit data is extracted from the following two-line orbital elements,

1 36089U 09061B   20339.57601125  .00000045  00000-0  22536-4 0  9997
2 36089  98.1774 307.9322 0083150 109.8968  15.0458 14.49840383585193
Epoch (UTC): 04 December 2020 13:49:27
Eccentricity: 0.0083150
inclination: 98.1774°
perigee height: 667 km
apogee height: 785 km
right ascension of ascending node: 307.9322°
argument of perigee: 109.8968°
revolutions per day: 14.49840383
mean anomaly at epoch: 15.0458°
orbit number at epoch: 58519

The dashed part of the orbit path shows where the satellite is in the earth's shadow,  

DLR